Hauptseite
METAR-TAF:

METAR-TAF

Flughäfen :

Heeresflugplatz Altenstadt

Altenstadt, Deutschland

Breite: 47-50N, Länge: 010-52E, Höhe: 739 m

Beobachtung

Neuester Wetterbericht von vor 58 Minuten, um 04:20 UTC
Wind 15 kt aus West
Temperatur 14°C
Luftfeuchtigkeit 88%
Luftdruck 1018 hPa

METAR: ETHA 230420Z AUTO 27015KT //// // ////// 14/12 Q1018 ///

Zeit: 07:18 (05:18 UTC)


TAF: fehlend

Wetterbeobachtungen und Prognosen von mehr als 4000 Flughäfen (METAR und TAF Bericht).

Die verfügbaren Stationen werden durch gelbe und rote Markierungen auf der Karte dargestellt.

Führen Sie die Maus auf sie, um den Namen der Station zu sehen.

Darauf klicken, um die Beobachtung von Wetterbeobachtungen und Prognosen zu sehen.

Um die Karte zu ändern : klicken Sie auf den grünen Tasten mit einem schwarzen Kreuz Zum Vergrößern, auf den grünen Button mit einem Gedankenstrich zu verkleinern, oder auf die grünen Pfeile für benachbarte Karten.


METAR-TAF: